Tracking 20093 objects as of 14-Dec-2019
HD Live streaming from Space Station
objects crossing your sky now

FENGYUN 1C DEB

Track FENGYUN 1C DEB now!
10-day predictions


NORAD ID: 30557
Int'l Code: 1999-025AKX
Perigee: 840.9 km
Apogee: 952.2 km
Inclination: 99.1 °
Period: 102.8 minutes
Semi major axis: 7267 km
RCS: 0.043 m2 (small)
Launch date: May 10, 1999
Source: People's Republic of China (PRC)
Launch site: Taiyaun Space Center, China (TSC)

Note: This is SATELLITE DEBRIS
aabbcc
Your satellite tracking list
Your tracking list is empty




NASA's NSSDC Master Catalog

Two Line Element Set (TLE):
1 30557U 99025AKX 19348.11177385  .00000354  00000-0  25826-3 0  9991
2 30557  99.0663  42.5971 0076516 205.5225 184.1312 14.01267687655793
Source of the keplerian elements: AFSPC